IW1PPB-3 Weather Reports


time (UTC)temp
C
wind
direction
speed
KPH
gust
KPH
rain 1hr
cm
rain 24hr
cm
rain mn
cm
humidity
%
barometer
mb
20260508011324 15 360 9.7 14.5 0.00 0.00 0.00 82 1012.7
20260508010338 15 360 6.4 9.7 0.00 0.00 0.00 82 1013.0
20260508005327 15 360 4.8 9.7 0.00 0.00 0.00 82 1013.0
20260508004343 15 360 6.4 8.0 0.00 0.00 0.00 82 1013.0
20260508003329 15 360 4.8 9.7 0.00 0.00 0.00 81 1013.2
20260508002342 15 360 3.2 9.7 0.00 0.00 0.00 81 1013.3
20260508001329 15 360 6.4 12.9 0.00 0.00 0.00 81 1013.4
20260508000334 15 360 6.4 9.7 0.00 0.00 0.00 80 1013.5
20260507235333 15 360 6.4 14.5 0.00 0.00 0.00 81 1013.6
20260507234331 15 360 8.0 12.9 0.00 0.00 0.00 80 1013.6
20260507233327 15 360 8.0 12.9 0.00 0.00 0.00 80 1013.8
20260507232331 15 360 4.8 6.4 0.00 0.00 0.00 80 1013.9
20260507231341 15 360 4.8 6.4 0.00 0.00 0.00 80 1014.1
20260507230330 15 360 4.8 6.4 0.00 0.00 0.00 80 1014.2
20260507225333 15 360 3.2 6.4 0.00 0.00 0.00 80 1014.2
20260507224332 15 360 3.2 8.0 0.00 0.00 0.00 79 1014.2
20260507223337 16 360 6.4 12.9 0.00 0.00 0.00 79 1014.2
20260507222335 16 360 3.2 9.7 0.00 0.00 0.00 79 1014.2
20260507221336 16 360 4.8 8.0 0.00 0.00 0.00 80 1014.2
20260507220323 16 360 1.6 6.4 0.00 0.00 0.00 80 1014.2
20260507215334 16 360 1.6 3.2 0.00 0.00 0.00 80 1014.2
20260507214322 16 360 3.2 6.4 0.00 0.00 0.00 80 1014.1
20260507213337 16 360 3.2 6.4 0.00 0.00 0.00 80 1013.9
20260507212326 16 360 4.8 4.8 0.00 0.00 0.00 80 1013.9
20260507211337 16 360 1.6 4.8 0.00 0.00 0.00 80 1013.9
20260507210325 16 360 1.6 6.4 0.00 0.00 0.00 81 1013.9
20260507205326 16 360 4.8 8.0 0.00 0.00 0.00 81 1013.8
20260507204334 16 360 3.2 8.0 0.00 0.00 0.00 80 1013.8
20260507203331 16 360 4.8 9.7 0.00 0.00 0.00 81 1013.8
20260507202336 16 360 4.8 8.0 0.00 0.00 0.00 81 1013.8
20260507201323 16 360 4.8 8.0 0.00 0.00 0.00 81 1013.9
20260507200322 16 360 3.2 6.4 0.00 0.00 0.00 81 1013.8
20260507195332 16 360 4.8 9.7 0.00 0.00 0.00 81 1013.5
20260507194348 17 360 4.8 9.7 0.00 0.00 0.00 81 1013.5
20260507193327 17 360 3.2 6.4 0.00 0.00 0.00 81 1013.4
20260507192344 17 360 3.2 8.0 0.00 0.00 0.00 81 1013.4
20260507191326 17 360 4.8 8.0 0.00 0.00 0.00 80 1013.2
20260507190332 17 360 4.8 8.0 0.00 0.00 0.00 79 1013.2
20260507185324 17 360 8.0 12.9 0.00 0.00 0.00 79 1013.2
20260507184324 17 360 4.8 9.7 0.00 0.00 0.00 79 1013.2
20260507183335 17 360 4.8 12.9 0.00 0.00 0.00 79 1013.1
20260507182350 17 360 6.4 8.0 0.00 0.00 0.00 79 1013.1
20260507181336 17 360 1.6 6.4 0.00 0.00 0.00 79 1013.0
20260507180323 17 360 1.6 6.4 0.00 0.00 0.00 78 1013.1
20260507175335 18 360 4.8 6.4 0.00 0.00 0.00 78 1013.0
20260507174322 18 360 3.2 9.7 0.00 0.00 0.00 78 1013.0
20260507173333 18 360 4.8 9.7 0.00 0.00 0.00 77 1012.9
20260507172341 18 360 4.8 8.0 0.00 0.00 0.00 76 1013.0
20260507171337 18 360 3.2 8.0 0.00 0.00 0.00 76 1013.1
20260507170323 18 360 3.2 9.7 0.00 0.00 0.00 75 1013.0
20260507165337 18 360 1.6 4.8 0.00 0.00 0.00 75 1012.9
20260507164322 18 360 1.6 4.8 0.00 0.00 0.00 76 1013.0
20260507163325 18 360 3.2 8.0 0.00 0.00 0.00 76 1012.9
20260507162324 18 360 4.8 9.7 0.00 0.00 0.00 76 1012.9
20260507161328 18 360 4.8 8.0 0.00 0.00 0.00 75 1012.9
20260507160339 18 360 4.8 9.7 0.00 0.00 0.00 75 1012.8
20260507155350 19 360 4.8 6.4 0.00 0.00 0.00 75 1012.8
20260507154339 19 360 4.8 12.9 0.00 0.00 0.00 74 1012.8
20260507153323 19 360 6.4 9.7 0.00 0.00 0.00 74 1012.9
20260507152340 18 360 4.8 9.7 0.00 0.00 0.00 75 1012.8
20260507151341 19 360 6.4 8.0 0.00 0.00 0.00 74 1012.9
20260507150337 18 360 4.8 14.5 0.00 0.00 0.00 76 1013.0
20260507145339 18 360 6.4 12.9 0.00 0.00 0.00 76 1013.0
20260507144336 19 360 4.8 12.9 0.00 0.00 0.00 75 1012.9
20260507143338 18 360 4.8 12.9 0.00 0.00 0.00 74 1013.0
20260507142333 19 360 4.8 12.9 0.00 0.00 0.00 73 1013.0
20260507141334 19 360 6.4 12.9 0.00 0.00 0.00 73 1012.9
20260507140347 18 360 4.8 14.5 0.00 0.00 0.00 74 1013.1
20260507135333 18 360 8.0 14.5 0.00 0.00 0.00 75 1013.2
20260507134349 18 360 8.0 16.1 0.00 0.00 0.00 76 1013.2
20260507133329 18 360 8.0 20.9 0.00 0.00 0.00 77 1013.4
20260507132344 18 360 12.9 19.3 0.00 0.00 0.00 77 1013.4
20260507131329 18 360 9.7 20.9 0.00 0.00 0.00 76 1013.4
20260507130332 18 360 11.3 24.1 0.00 0.00 0.00 76 1013.3
20260507125339 18 360 14.5 20.9 0.00 0.00 0.00 75 1013.1
20260507124352 18 360 11.3 22.5 0.00 0.00 0.00 75 1013.0
20260507123325 18 360 14.5 27.4 0.00 0.00 0.00 74 1013.0
20260507122327 19 360 9.7 24.1 0.00 0.00 0.00 74 1013.0
20260507121339 19 360 11.3 22.5 0.00 0.00 0.00 73 1012.9
20260507120322 19 360 9.7 22.5 0.00 0.00 0.00 73 1012.9
20260507115334 18 360 14.5 27.4 0.00 0.00 0.00 74 1012.8
20260507114345 18 360 11.3 22.5 0.00 0.00 0.00 74 1013.0
20260507113330 18 360 11.3 24.1 0.00 0.00 0.00 74 1013.0
20260507112337 18 360 12.9 20.9 0.00 0.00 0.00 74 1013.1
20260507111322 18 360 12.9 22.5 0.00 0.00 0.00 73 1013.2
20260507110321 18 360 8.0 20.9 0.00 0.00 0.00 76 1013.2
20260507105336 18 360 19.3 29.0 0.00 0.00 0.00 75 1013.0
20260507104347 18 360 11.3 27.4 0.00 0.00 0.00 76 1013.1
20260507103332 18 360 12.9 29.0 0.00 0.00 0.00 78 1013.1
20260507102331 18 360 19.3 29.0 0.00 0.00 0.00 78 1013.1
20260507101324 18 360 19.3 30.6 0.00 0.00 0.00 78 1013.2
20260507100341 18 360 17.7 32.2 0.00 0.00 0.00 78 1013.2
20260507095337 18 360 22.5 32.2 0.00 0.00 0.00 78 1013.0
20260507094336 18 360 24.1 35.4 0.00 0.00 0.00 78 1012.9
20260507093322 18 360 19.3 30.6 0.00 0.00 0.00 78 1012.9
20260507092332 18 360 17.7 35.4 0.00 0.00 0.00 77 1012.9
20260507091346 19 360 14.5 24.1 0.00 0.00 0.00 75 1012.7
20260507090323 18 360 14.5 27.4 0.00 0.00 0.00 74 1012.7
20260507085325 18 360 14.5 22.5 0.00 0.00 0.00 74 1012.6
20260507084336 19 360 9.7 22.5 0.00 0.00 0.00 73 1012.6
20260507083349 19 360 9.7 19.3 0.00 0.00 0.00 71 1012.4
20260507082335 18 360 8.0 22.5 0.00 0.00 0.00 71 1012.3
20260507081345 18 360 17.7 20.9 0.00 0.00 0.00 69 1012.4
20260507080325 18 360 8.0 19.3 0.00 0.00 0.00 68 1012.4
20260507075340 18 360 11.3 22.5 0.00 0.00 0.00 67 1012.4
20260507074338 18 360 12.9 25.7 0.00 0.00 0.00 66 1012.3
20260507073334 19 360 12.9 24.1 0.00 0.00 0.00 65 1012.3
20260507072332 19 340 1.6 4.8 0.00 0.00 0.00 66 1012.3
20260507071333 18 340 0.0 3.2 0.00 0.00 0.00 69 1012.3
20260507070335 18 360 0.0 6.4 0.00 0.00 0.00 70 1012.3
20260507065343 18 360 4.8 9.7 0.00 0.00 0.00 71 1012.2
20260507064342 18 360 1.6 6.4 0.00 0.00 0.00 73 1012.1
20260507063324 18 360 4.8 6.4 0.00 0.00 0.00 73 1012.0
20260507062330 17 360 3.2 8.0 0.00 0.00 0.00 73 1012.0
20260507061326 17 360 0.0 6.4 0.00 0.00 0.00 73 1011.9
20260507060334 17 360 3.2 6.4 0.00 0.00 0.00 73 1011.9
20260507055322 17 360 1.6 3.2 0.00 0.20 0.00 74 1011.9
20260507054329 16 360 1.6 3.2 0.00 0.20 0.00 75 1011.7
20260507053328 16 360 3.2 6.4 0.00 0.20 0.00 75 1011.7
20260507052347 15 360 4.8 6.4 0.00 0.20 0.00 75 1011.5
20260507051333 15 360 3.2 12.9 0.00 0.20 0.00 76 1011.3
20260507050349 14 360 6.4 12.9 0.00 0.20 0.00 77 1011.2
20260507045333 14 360 6.4 9.7 0.00 1.19 0.00 79 1011.1
20260507044321 14 360 6.4 8.0 0.00 1.19 0.00 79 1011.1
20260507043333 14 360 4.8 6.4 0.00 1.19 0.00 79 1010.9
20260507042321 14 360 6.4 12.9 0.00 1.19 0.00 79 1011.1
20260507041335 14 360 4.8 9.7 0.00 1.19 0.00 79 1011.0
20260507040322 14 360 6.4 8.0 0.00 1.19 0.00 79 1010.9
20260507035327 14 360 3.2 6.4 0.00 1.19 0.00 80 1010.9
20260507034335 14 360 4.8 8.0 0.00 1.19 0.00 79 1010.8
20260507033332 14 360 3.2 6.4 0.00 1.19 0.00 80 1010.7
20260507032335 14 360 3.2 8.0 0.00 1.19 0.00 80 1010.8
20260507031323 14 360 6.4 9.7 0.00 1.19 0.00 80 1010.8
20260507030336 14 360 8.0 12.9 0.00 1.19 0.00 79 1010.7
20260507025342 14 360 6.4 9.7 0.00 1.19 0.00 79 1010.7
20260507024333 14 360 6.4 9.7 0.00 1.19 0.00 79 1010.7
20260507023335 15 360 8.0 14.5 0.00 1.19 0.00 78 1010.7
20260507022325 15 360 8.0 14.5 0.00 1.19 0.00 79 1010.6
20260507021340 15 360 4.8 9.7 0.00 1.19 0.00 80 1010.5
20260507020327 14 360 6.4 12.9 0.00 1.19 0.00 81 1010.5
20260507015339 15 360 3.2 6.4 0.00 1.19 0.00 81 1010.5
20260507014348 15 360 4.8 6.4 0.00 1.19 0.00 81 1010.3
20260507013327 15 360 4.8 9.7 0.00 1.19 0.00 82 1010.3
20260507012345 15 360 6.4 8.0 0.00 1.19 0.00 82 1010.3